Flag for Bolivia Weather past 2 weeks in Cochabamba, Bolivia

Now
45 °F

Clear.


Feels Like: 45 °F
Forecast: 43 / 78 °F
Wind: No wind

Location: Cochabamba Airport

Current Time: Aug 2, 2014 at 5:38:09 AM

Latest Report: Aug 2, 2014 at 5:00 AM


Visibility: 4 mi

Pressure: 30.33 "Hg

Humidity: 71%

Dew point: 36 °F

Location of CochabambaLocation

Historic Weather in Cochabamba — Graph

°F

Cochabamba temperature yesterday

Maximum temperature yesterday: 81 °F (at 3:00 PM)
Minimum temperature yesterday: 41 °F (at 6:00 AM)
Average temperature yesterday: 60 °F

Past Weeks' High & Low Weather Summary

 TemperatureHumidityPressure
High81 °F (Jul 29, 4:00 PM)100% (Jul 19, 6:00 AM)30.54 "Hg (Jul 19, 6:00 AM)
Low37 °F (Jul 24, 7:00 AM)6% (Jul 28, 4:00 PM)30.04 "Hg (Jul 23, 5:00 PM)
Average58 °F46%30.28 "Hg
* Reported Jul 18 5:00 AM — Aug 2 4:00 AM, Cochabamba, Weather by CustomWeather, © 2014

Note: Actual official high and low records may vary slightly from our data, if they occured in-between our weather recording intervals... More about our weather records

Advertising

Cochabamba weather history for previous 24 hours

 ConditionsComfort  
Time TempWeatherWind HumidityBarometerVisibility
4:00 AM
Aug 2
46 °FClear.No wind66%30.33 "Hg5 mi
3:00 AM46 °FClear.No wind66%30.33 "Hg5 mi
2:00 AM48 °FClear.No wind66%30.33 "HgN/A
1:00 AM50 °FClear.No wind62%30.33 "HgN/A
12:00 AM54 °FClear.No wind51%30.33 "HgN/A
11:00 PM
Aug 1
59 °FClear.No wind42%30.33 "HgN/A
10:00 PM61 °FClear.5 mph39%30.30 "HgN/A
9:00 PM63 °FClear.3 mph32%30.27 "HgN/A
8:00 PM64 °FClear.6 mph28%30.24 "HgN/A
7:00 PM68 °FPassing clouds.3 mph28%30.21 "HgN/A
6:00 PM73 °FPassing clouds.10 mph15%30.18 "HgN/A
5:00 PM79 °FPassing clouds.3 mph7%30.15 "HgN/A
4:00 PM81 °FPassing clouds.6 mph7%30.18 "HgN/A
3:00 PM81 °FPassing clouds.3 mph9%30.18 "HgN/A
2:00 PM79 °FPassing clouds.No wind12%30.21 "HgN/A
1:00 PM77 °FPassing clouds.No wind18%30.27 "Hg6 mi
11:00 AM68 °FClear.5 mph28%30.33 "Hg5 mi
10:00 AM64 °FClear.No wind32%30.33 "Hg3 mi
9:00 AM54 °FClear.No wind47%30.33 "Hg1 mi
8:00 AM48 °FClear.No wind50%30.33 "Hg2 mi
7:00 AM41 °FClear.No wind66%30.30 "Hg2 mi
6:00 AM41 °FClear.No wind70%30.27 "Hg5 mi
5:00 AM43 °FClear.No wind66%30.27 "Hg6 mi
Weather by CustomWeather, © 2014

See weather overviewHow to use our weather pages